Location: Cuzcurrita-R�o Tir�n
(42.5415°N, 2.9642°W)
Time: 17:54:27
(UTC+00:00)

STARLINK-1022 - Pass Details

Date: 27 February 2020
Orbit: 548 x 551 km, 53.0° (Epoch: 01 April)

Event Time Altitude Azimuth Distance (km) Brightness Sun altitude
Rises 18:51:27 0° 239° (WSW) 2,705 8.3 -10.5°
Maximum altitude 18:57:47 70° 325° (NW) 585 3.8 -11.7°
Enters shadow 19:01:37 12° 50° (NE) 1,702 5.7 -12.4°
